TimeEST,TemperatureF,Dew PointF,Humidity,Sea Level PressureIn,VisibilityMPH,Wind Direction,Wind SpeedMPH,Gust SpeedMPH,PrecipitationIn,Events,Conditions,WindDirDegrees,DateUTC
12:51 AM,24.1,10.0,55,30.39,10.0,NNW,13.8,-,N/A,,Clear,330,2013-01-18 05:51:00
1:51 AM,24.1,10.0,55,30.43,10.0,NW,10.4,-,N/A,,Clear,320,2013-01-18 06:51:00
2:51 AM,23.0,10.0,58,30.45,10.0,NW,5.8,-,N/A,,Clear,320,2013-01-18 07:51:00
3:51 AM,21.0,10.9,65,30.47,10.0,West,4.6,-,N/A,,Clear,280,2013-01-18 08:51:00
4:51 AM,21.0,12.0,68,30.48,10.0,WNW,3.5,-,N/A,,Clear,290,2013-01-18 09:51:00
5:51 AM,21.0,12.0,68,30.48,10.0,West,3.5,-,N/A,,Clear,260,2013-01-18 10:51:00
6:51 AM,21.9,12.9,68,30.49,10.0,WSW,4.6,-,N/A,,Clear,240,2013-01-18 11:51:00
7:51 AM,19.9,14.0,78,30.50,10.0,SE,3.5,-,N/A,,Clear,140,2013-01-18 12:51:00
8:51 AM,21.2,15.8,80,30.49,10.0,South,4.6,-,N/A,,Partly Cloudy,170,2013-01-18 13:51:00
9:51 AM,26.1,16.0,66,30.54,10.0,SW,4.6,-,N/A,,Clear,230,2013-01-18 14:51:00
10:51 AM,28.0,15.1,58,30.53,10.0,SW,3.5,-,N/A,,Partly Cloudy,230,2013-01-18 15:51:00
11:51 AM,30.9,14.0,50,30.50,10.0,SSW,9.2,-,N/A,,Partly Cloudy,200,2013-01-18 16:51:00
12:51 PM,33.1,15.1,48,30.48,10.0,SSW,11.5,-,N/A,,Clear,210,2013-01-18 17:51:00
1:51 PM,33.1,16.0,50,30.45,10.0,SSW,15.0,20.7,N/A,,Partly Cloudy,200,2013-01-18 18:51:00
2:51 PM,34.0,17.1,50,30.42,10.0,SSW,13.8,21.9,N/A,,Partly Cloudy,200,2013-01-18 19:51:00
3:51 PM,35.1,18.0,50,30.40,10.0,South,15.0,23.0,N/A,,Mostly Cloudy,180,2013-01-18 20:51:00
4:51 PM,34.0,18.0,52,30.39,10.0,South,18.4,25.3,N/A,,Mostly Cloudy,190,2013-01-18 21:51:00
5:51 PM,33.1,19.9,59,30.38,10.0,South,12.7,-,N/A,,Scattered Clouds,180,2013-01-18 22:51:00
6:51 PM,32.0,21.0,64,30.37,10.0,South,11.5,-,N/A,,Partly Cloudy,180,2013-01-18 23:51:00
7:51 PM,32.0,21.9,66,30.35,10.0,South,11.5,-,N/A,,Clear,180,2013-01-19 00:51:00
8:51 PM,32.0,23.0,69,30.32,10.0,South,11.5,-,N/A,,Partly Cloudy,180,2013-01-19 01:51:00
9:51 PM,33.1,23.0,66,30.29,10.0,South,12.7,-,N/A,,Scattered Clouds,180,2013-01-19 02:51:00
10:51 PM,33.8,24.8,70,30.23,10.0,South,13.8,-,N/A,,Partly Cloudy,180,2013-01-19 03:51:00
11:51 PM,34.0,23.0,64,30.24,10.0,South,13.8,-,N/A,,Partly Cloudy,190,2013-01-19 04:51:00